| time (UTC) | temp F | wind direction | speed knots | gust knots | rain 1hr in | rain 24hr in | rain mn in | humidity % | barometer mb |
| 20260505065504 | 53 | 146 | 0.9 | 1.7 | 0.00 | 0.00 | 0.00 | 85 | 1012.8 |
| 20260505065003 | 53 | 145 | 0.0 | 1.7 | 0.00 | 0.00 | 0.00 | 85 | 1012.8 |
| 20260505064506 | 53 | 146 | 0.0 | 2.6 | 0.00 | 0.00 | 0.00 | 85 | 1012.8 |
| 20260505064004 | 53 | 146 | 0.9 | 2.6 | 0.00 | 0.00 | 0.00 | 85 | 1012.8 |
| 20260505063504 | 54 | 147 | 1.7 | 3.5 | 0.00 | 0.00 | 0.00 | 84 | 1012.8 |
| 20260505063007 | 54 | 159 | 1.7 | 3.5 | 0.00 | 0.00 | 0.00 | 84 | 1012.8 |
| 20260505062505 | 54 | 156 | 0.9 | 3.5 | 0.00 | 0.00 | 0.00 | 83 | 1012.7 |
| 20260505062003 | 54 | 157 | 2.6 | 3.5 | 0.00 | 0.00 | 0.00 | 83 | 1012.7 |
| 20260505061525 | 54 | 160 | 0.9 | 1.7 | 0.00 | 0.00 | 0.00 | 83 | 1012.7 |
| 20260505061007 | 55 | 160 | 0.9 | 3.5 | 0.00 | 0.00 | 0.00 | 82 | 1012.6 |
| 20260505060510 | 55 | 160 | 0.9 | 3.5 | 0.00 | 0.00 | 0.00 | 82 | 1012.6 |
| 20260505060031 | 55 | 159 | 1.7 | 3.5 | 0.00 | 0.00 | 0.00 | 81 | 1012.5 |
| 20260505055508 | 55 | 157 | 1.7 | 3.5 | 0.00 | 0.00 | 0.00 | 81 | 1012.5 |
| 20260505055011 | 56 | 159 | 1.7 | 3.5 | 0.00 | 0.00 | 0.00 | 80 | 1012.5 |
| 20260505054522 | 56 | 161 | 1.7 | 3.5 | 0.00 | 0.00 | 0.00 | 80 | 1012.4 |
| 20260505054007 | 56 | 149 | 1.7 | 2.6 | 0.00 | 0.00 | 0.00 | 80 | 1012.4 |
| 20260505053504 | 56 | 146 | 1.7 | 2.6 | 0.00 | 0.00 | 0.00 | 80 | 1012.4 |
| 20260505053006 | 56 | 157 | 1.7 | 2.6 | 0.00 | 0.00 | 0.00 | 79 | 1012.4 |
| 20260505052505 | 57 | 159 | 1.7 | 2.6 | 0.00 | 0.00 | 0.00 | 79 | 1012.4 |
| 20260505052005 | 57 | 157 | 0.9 | 2.6 | 0.00 | 0.00 | 0.00 | 78 | 1012.3 |
| 20260505051510 | 57 | 155 | 0.9 | 2.6 | 0.00 | 0.00 | 0.00 | 78 | 1012.3 |
| 20260505051006 | 57 | 153 | 0.0 | 2.6 | 0.00 | 0.00 | 0.00 | 77 | 1012.2 |
| 20260505050507 | 57 | 153 | 1.7 | 2.6 | 0.00 | 0.00 | 0.00 | 77 | 1012.1 |
| 20260505041509 | 60 | 134 | 0.9 | 0.9 | 0.00 | 0.00 | 0.00 | 72 | 1011.9 |
| 20260505041002 | 61 | 129 | 0.9 | 0.9 | 0.00 | 0.00 | 0.00 | 71 | 1011.8 |
| 20260505040512 | 61 | 129 | 0.9 | 1.7 | 0.00 | 0.00 | 0.00 | 70 | 1011.8 |
| 20260505040019 | 61 | 129 | 0.9 | 1.7 | 0.00 | 0.00 | 0.00 | 69 | 1011.8 |
| 20260505035506 | 62 | 74 | 0.0 | 1.7 | 0.00 | 0.00 | 0.00 | 68 | 1011.8 |
| 20260505035006 | 62 | 59 | 0.0 | 1.7 | 0.00 | 0.00 | 0.00 | 67 | 1011.7 |
| 20260505034516 | 63 | 51 | 0.0 | 1.7 | 0.00 | 0.00 | 0.00 | 66 | 1011.7 |
| 20260505034013 | 63 | 39 | 0.0 | 0.9 | 0.00 | 0.00 | 0.00 | 65 | 1011.6 |
| 20260505033509 | 63 | 24 | 0.0 | 0.9 | 0.00 | 0.00 | 0.00 | 66 | 1011.5 |
| 20260505033022 | 64 | 11 | 0.0 | 0.0 | 0.00 | 0.00 | 0.00 | 65 | 1011.4 |
| 20260505032510 | 64 | 11 | 0.0 | 0.0 | 0.00 | 0.00 | 0.00 | 64 | 1011.3 |
| 20260505032014 | 65 | 11 | 0.0 | 0.0 | 0.00 | 0.00 | 0.00 | 64 | 1011.2 |
| 20260505031506 | 65 | 11 | 0.0 | 0.0 | 0.00 | 0.00 | 0.00 | 63 | 1011.2 |
| 20260505031003 | 66 | 11 | 0.0 | 0.9 | 0.00 | 0.00 | 0.00 | 62 | 1011.2 |
| 20260505030503 | 66 | 11 | 0.0 | 0.9 | 0.00 | 0.00 | 0.00 | 62 | 1011.1 |
| 20260505030010 | 67 | 24 | 0.0 | 0.0 | 0.00 | 0.00 | 0.00 | 59 | 1011.1 |
| 20260505025509 | 67 | 24 | 0.0 | 0.0 | 0.00 | 0.00 | 0.00 | 59 | 1011.1 |
| 20260505025009 | 67 | 24 | 0.0 | 0.0 | 0.00 | 0.00 | 0.00 | 59 | 1011.1 |
| 20260505024515 | 68 | 24 | 0.0 | 0.0 | 0.00 | 0.00 | 0.00 | 59 | 1011.1 |
| 20260505024007 | 68 | 24 | 0.0 | 1.7 | 0.00 | 0.00 | 0.00 | 57 | 1011.1 |
| 20260505023508 | 68 | 24 | 0.0 | 1.7 | 0.00 | 0.00 | 0.00 | 56 | 1011.1 |
| 20260505023021 | 68 | 24 | 0.0 | 0.9 | 0.00 | 0.00 | 0.00 | 55 | 1011.2 |
| 20260505022506 | 69 | 332 | 0.0 | 0.0 | 0.00 | 0.00 | 0.00 | 54 | 1011.1 |
| 20260505022012 | 69 | 332 | 0.0 | 1.7 | 0.00 | 0.00 | 0.00 | 53 | 1011.0 |
| 20260505021521 | 69 | 332 | 0.0 | 1.7 | 0.00 | 0.00 | 0.00 | 52 | 1011.0 |
| 20260505021008 | 69 | 332 | 0.0 | 1.7 | 0.00 | 0.00 | 0.00 | 51 | 1010.9 |
| 20260505020502 | 70 | 332 | 0.0 | 1.7 | 0.00 | 0.00 | 0.00 | 50 | 1011.0 |
| 20260505020008 | 70 | 332 | 0.0 | 0.9 | 0.00 | 0.00 | 0.00 | 50 | 1011.0 |
| 20260505015503 | 70 | 335 | 0.0 | 1.7 | 0.00 | 0.00 | 0.00 | 50 | 1011.1 |
| 20260505015006 | 70 | 334 | 0.0 | 1.7 | 0.00 | 0.00 | 0.00 | 49 | 1011.1 |
| 20260505014522 | 71 | 330 | 0.9 | 0.9 | 0.00 | 0.00 | 0.00 | 49 | 1011.0 |
| 20260505014008 | 70 | 346 | 0.0 | 0.9 | 0.00 | 0.00 | 0.00 | 48 | 1011.0 |
| 20260505013510 | 71 | 346 | 0.0 | 0.9 | 0.00 | 0.00 | 0.00 | 47 | 1010.9 |
| 20260505013026 | 71 | 346 | 0.0 | 1.7 | 0.00 | 0.00 | 0.00 | 47 | 1010.9 |
| 20260505012510 | 71 | 338 | 0.9 | 1.7 | 0.00 | 0.00 | 0.00 | 47 | 1011.0 |
| 20260505012011 | 71 | 15 | 0.0 | 1.7 | 0.00 | 0.00 | 0.00 | 47 | 1011.0 |
| 20260505011530 | 71 | 9 | 0.0 | 2.6 | 0.00 | 0.00 | 0.00 | 45 | 1011.1 |
| 20260505011009 | 71 | 5 | 0.9 | 2.6 | 0.00 | 0.00 | 0.00 | 45 | 1011.1 |
| 20260505010509 | 72 | 279 | 0.0 | 1.7 | 0.00 | 0.00 | 0.00 | 45 | 1011.1 |
| 20260505010022 | 72 | 279 | 0.0 | 1.7 | 0.00 | 0.00 | 0.00 | 44 | 1011.1 |
| 20260505005503 | 73 | 278 | 0.0 | 1.7 | 0.00 | 0.00 | 0.00 | 42 | 1011.1 |
| 20260505005003 | 73 | 26 | 0.0 | 1.7 | 0.00 | 0.00 | 0.00 | 41 | 1011.1 |
| 20260505004509 | 73 | 299 | 0.0 | 1.7 | 0.00 | 0.00 | 0.00 | 41 | 1011.2 |
| 20260505004006 | 73 | 299 | 0.0 | 1.7 | 0.00 | 0.00 | 0.00 | 40 | 1011.2 |
| 20260505003506 | 73 | 299 | 0.0 | 0.9 | 0.00 | 0.00 | 0.00 | 41 | 1011.2 |
| 20260505003018 | 73 | 299 | 0.0 | 1.7 | 0.00 | 0.00 | 0.00 | 39 | 1011.2 |
| 20260505002509 | 74 | 299 | 0.0 | 1.7 | 0.00 | 0.00 | 0.00 | 39 | 1011.1 |
| 20260505002009 | 74 | 302 | 0.0 | 1.7 | 0.00 | 0.00 | 0.00 | 39 | 1011.1 |
| 20260505001520 | 73 | 243 | 0.9 | 2.6 | 0.00 | 0.00 | 0.00 | 38 | 1011.2 |
| 20260505001008 | 74 | 283 | 0.9 | 2.6 | 0.00 | 0.00 | 0.00 | 37 | 1011.2 |
| 20260505000510 | 74 | 278 | 0.9 | 1.7 | 0.00 | 0.00 | 0.00 | 37 | 1011.2 |
| 20260505000029 | 74 | 256 | 0.9 | 1.7 | 0.00 | 0.00 | 0.00 | 37 | 1011.3 |
| 20260504235509 | 74 | 289 | 0.0 | 1.7 | 0.00 | 0.00 | 0.00 | 38 | 1011.4 |
| 20260504235012 | 75 | 335 | 0.0 | 1.7 | 0.00 | 0.00 | 0.00 | 39 | 1011.5 |
| 20260504234508 | 75 | 352 | 0.0 | 1.7 | 0.00 | 0.00 | 0.00 | 38 | 1011.5 |
| 20260504234007 | 74 | 5 | 0.0 | 1.7 | 0.00 | 0.00 | 0.00 | 37 | 1011.5 |
| 20260504233505 | 74 | 190 | 0.0 | 1.7 | 0.00 | 0.00 | 0.00 | 37 | 1011.6 |
| 20260504233017 | 74 | 252 | 0.0 | 2.6 | 0.00 | 0.00 | 0.00 | 41 | 1011.5 |
| 20260504232512 | 74 | 303 | 0.0 | 2.6 | 0.00 | 0.00 | 0.00 | 37 | 1011.5 |
| 20260504232007 | 74 | 329 | 0.9 | 1.7 | 0.00 | 0.00 | 0.00 | 41 | 1011.4 |
| 20260504231519 | 74 | 238 | 0.0 | 1.7 | 0.00 | 0.00 | 0.00 | 41 | 1011.4 |
| 20260504231009 | 74 | 201 | 0.0 | 1.7 | 0.00 | 0.00 | 0.00 | 40 | 1011.4 |
| 20260504230509 | 74 | 247 | 0.0 | 2.6 | 0.00 | 0.00 | 0.00 | 43 | 1011.3 |
| 20260504230020 | 75 | 254 | 0.9 | 2.6 | 0.00 | 0.00 | 0.00 | 42 | 1011.4 |
| 20260504225507 | 74 | 298 | 0.9 | 2.6 | 0.00 | 0.00 | 0.00 | 39 | 1011.5 |
| 20260504225011 | 74 | 270 | 0.9 | 2.6 | 0.00 | 0.00 | 0.00 | 38 | 1011.5 |
| 20260504224526 | 74 | 292 | 0.9 | 3.5 | 0.00 | 0.00 | 0.00 | 40 | 1011.6 |
| 20260504224010 | 73 | 325 | 0.0 | 3.5 | 0.00 | 0.00 | 0.00 | 39 | 1011.6 |
| 20260504223504 | 73 | 286 | 1.7 | 3.5 | 0.00 | 0.00 | 0.00 | 38 | 1011.7 |
| 20260504223014 | 72 | 156 | 0.9 | 2.6 | 0.00 | 0.00 | 0.00 | 39 | 1011.7 |
| 20260504222512 | 73 | 311 | 0.9 | 2.6 | 0.00 | 0.00 | 0.00 | 41 | 1011.8 |
| 20260504222009 | 72 | 238 | 0.9 | 2.6 | 0.00 | 0.00 | 0.00 | 38 | 1011.7 |
| 20260504221521 | 73 | 262 | 0.9 | 2.6 | 0.00 | 0.00 | 0.00 | 41 | 1011.8 |
| 20260504221008 | 73 | 256 | 0.9 | 2.6 | 0.00 | 0.00 | 0.00 | 39 | 1011.9 |
| 20260504220508 | 73 | 281 | 0.9 | 2.6 | 0.00 | 0.00 | 0.00 | 39 | 1011.9 |
| 20260504220020 | 72 | 256 | 0.9 | 2.6 | 0.00 | 0.00 | 0.00 | 42 | 1011.9 |
| 20260504215510 | 72 | 240 | 0.9 | 2.6 | 0.00 | 0.00 | 0.00 | 40 | 1012.0 |
| 20260504215005 | 72 | 296 | 0.9 | 2.6 | 0.00 | 0.00 | 0.00 | 42 | 1012.0 |
| 20260504214505 | 73 | 234 | 0.9 | 5.2 | 0.00 | 0.00 | 0.00 | 41 | 1012.0 |
| 20260504214005 | 73 | 246 | 0.9 | 5.2 | 0.00 | 0.00 | 0.00 | 40 | 1012.0 |
| 20260504213506 | 74 | 305 | 0.9 | 3.5 | 0.00 | 0.00 | 0.00 | 42 | 1012.1 |
| 20260504213020 | 74 | 302 | 0.9 | 1.7 | 0.00 | 0.00 | 0.00 | 43 | 1012.1 |
| 20260504212504 | 74 | 320 | 0.9 | 2.6 | 0.00 | 0.00 | 0.00 | 43 | 1012.0 |
| 20260504212003 | 73 | 241 | 0.9 | 2.6 | 0.00 | 0.00 | 0.00 | 42 | 1012.1 |
| 20260504211529 | 73 | 250 | 0.9 | 2.6 | 0.00 | 0.00 | 0.00 | 42 | 1012.1 |
| 20260504211007 | 73 | 253 | 1.7 | 2.6 | 0.00 | 0.00 | 0.00 | 42 | 1012.1 |
| 20260504210508 | 73 | 289 | 0.9 | 2.6 | 0.00 | 0.00 | 0.00 | 41 | 1012.1 |
| 20260504210020 | 73 | 292 | 1.7 | 2.6 | 0.00 | 0.00 | 0.00 | 42 | 1012.3 |
| 20260504205508 | 71 | 288 | 0.9 | 3.5 | 0.00 | 0.00 | 0.00 | 42 | 1012.2 |
| 20260504205007 | 72 | 255 | 0.9 | 5.2 | 0.00 | 0.00 | 0.00 | 44 | 1012.3 |
| 20260504204524 | 72 | 281 | 0.9 | 5.2 | 0.00 | 0.00 | 0.00 | 46 | 1012.4 |
| 20260504204004 | 72 | 269 | 2.6 | 3.5 | 0.00 | 0.00 | 0.00 | 44 | 1012.4 |
| 20260504203506 | 72 | 273 | 1.7 | 3.5 | 0.00 | 0.00 | 0.00 | 44 | 1012.4 |
| 20260504203008 | 72 | 255 | 0.9 | 2.6 | 0.00 | 0.00 | 0.00 | 44 | 1012.3 |
| 20260504202506 | 72 | 240 | 0.0 | 1.7 | 0.00 | 0.00 | 0.00 | 49 | 1012.3 |
| 20260504202006 | 72 | 219 | 0.9 | 2.6 | 0.00 | 0.00 | 0.00 | 45 | 1012.2 |
| 20260504201511 | 72 | 253 | 1.7 | 2.6 | 0.00 | 0.00 | 0.00 | 48 | 1012.3 |
| 20260504201006 | 71 | 271 | 1.7 | 2.6 | 0.00 | 0.00 | 0.00 | 46 | 1012.3 |
| 20260504200507 | 71 | 237 | 0.9 | 2.6 | 0.00 | 0.00 | 0.00 | 47 | 1012.4 |
| 20260504200021 | 71 | 298 | 1.7 | 2.6 | 0.00 | 0.00 | 0.00 | 45 | 1012.5 |
| 20260504195509 | 71 | 269 | 0.9 | 2.6 | 0.00 | 0.00 | 0.00 | 45 | 1012.5 |
| 20260504195007 | 71 | 217 | 0.9 | 2.6 | 0.00 | 0.00 | 0.00 | 45 | 1012.5 |
| 20260504194524 | 72 | 274 | 1.7 | 2.6 | 0.00 | 0.00 | 0.00 | 44 | 1012.5 |
| 20260504194010 | 72 | 290 | 0.9 | 2.6 | 0.00 | 0.00 | 0.00 | 43 | 1012.5 |
| 20260504193509 | 73 | 218 | 0.0 | 2.6 | 0.00 | 0.00 | 0.00 | 45 | 1012.5 |
| 20260504193007 | 71 | 307 | 0.0 | 2.6 | 0.00 | 0.00 | 0.00 | 46 | 1012.4 |
| 20260504192507 | 71 | 321 | 1.7 | 2.6 | 0.00 | 0.00 | 0.00 | 45 | 1012.6 |
| 20260504192006 | 71 | 273 | 1.7 | 2.6 | 0.00 | 0.00 | 0.00 | 46 | 1012.6 |
| 20260504191512 | 71 | 293 | 1.7 | 2.6 | 0.00 | 0.00 | 0.00 | 45 | 1012.7 |
| 20260504191007 | 71 | 315 | 0.9 | 2.6 | 0.00 | 0.00 | 0.00 | 46 | 1012.6 |
| 20260504190507 | 71 | 240 | 0.0 | 2.6 | 0.00 | 0.00 | 0.00 | 48 | 1012.5 |
| 20260504190018 | 70 | 313 | 0.9 | 5.2 | 0.00 | 0.00 | 0.00 | 48 | 1012.6 |
| 20260504185507 | 70 | 296 | 1.7 | 5.2 | 0.00 | 0.00 | 0.00 | 48 | 1012.6 |
| 20260504185007 | 71 | 123 | 1.7 | 3.5 | 0.00 | 0.00 | 0.00 | 50 | 1012.5 |
| 20260504184535 | 70 | 105 | 0.9 | 3.5 | 0.00 | 0.00 | 0.00 | 47 | 1012.6 |
| 20260504183512 | 70 | 267 | 0.0 | 3.5 | 0.00 | 0.00 | 0.00 | 52 | 1012.7 |
| 20260504183024 | 70 | 182 | 0.0 | 2.6 | 0.00 | 0.00 | 0.00 | 48 | 1012.8 |
| 20260504182510 | 70 | 290 | 0.9 | 2.6 | 0.00 | 0.00 | 0.00 | 48 | 1012.8 |
| 20260504182006 | 70 | 168 | 0.0 | 2.6 | 0.00 | 0.00 | 0.00 | 49 | 1012.8 |
| 20260504181510 | 69 | 263 | 0.9 | 3.5 | 0.00 | 0.00 | 0.00 | 49 | 1012.8 |
| 20260504181006 | 69 | 300 | 1.7 | 3.5 | 0.00 | 0.00 | 0.00 | 46 | 1012.8 |
| 20260504180507 | 69 | 260 | 0.9 | 2.6 | 0.00 | 0.00 | 0.00 | 47 | 1012.7 |
| 20260504180016 | 69 | 234 | 1.7 | 2.6 | 0.00 | 0.00 | 0.00 | 48 | 1012.7 |
| 20260504175507 | 69 | 311 | 0.9 | 3.5 | 0.00 | 0.00 | 0.00 | 48 | 1012.8 |
| 20260504175009 | 68 | 288 | 0.9 | 4.3 | 0.00 | 0.00 | 0.00 | 49 | 1012.8 |
| 20260504174520 | 68 | 166 | 0.9 | 4.3 | 0.00 | 0.00 | 0.00 | 49 | 1012.7 |
| 20260504174011 | 68 | 274 | 0.9 | 1.7 | 0.00 | 0.00 | 0.00 | 51 | 1012.6 |
| 20260504173022 | 68 | 272 | 1.7 | 2.6 | 0.00 | 0.00 | 0.00 | 52 | 1012.5 |
| 20260504172508 | 67 | 271 | 0.9 | 1.7 | 0.00 | 0.00 | 0.00 | 48 | 1012.5 |
| 20260504172008 | 67 | 159 | 0.9 | 2.6 | 0.00 | 0.00 | 0.00 | 52 | 1012.5 |
| 20260504171508 | 66 | 268 | 0.0 | 2.6 | 0.00 | 0.00 | 0.00 | 50 | 1012.5 |
| 20260504171006 | 66 | 189 | 1.7 | 2.6 | 0.00 | 0.00 | 0.00 | 51 | 1012.5 |
| 20260504170506 | 66 | 195 | 0.9 | 1.7 | 0.00 | 0.00 | 0.00 | 51 | 1012.5 |
| 20260504151009 | 61 | 157 | 0.9 | 1.7 | 0.00 | 0.00 | 0.00 | 54 | 1011.5 |
| 20260504150514 | 61 | 153 | 0.9 | 2.6 | 0.00 | 0.00 | 0.00 | 53 | 1011.5 |
| 20260504141013 | 60 | 82 | 0.0 | 0.0 | 0.00 | 0.00 | 0.00 | 55 | 1011.1 |
| 20260504140514 | 60 | 82 | 0.0 | 0.0 | 0.00 | 0.00 | 0.00 | 55 | 1011.1 |
| 20260504130505 | 62 | 82 | 0.0 | 0.0 | 0.00 | 0.00 | 0.00 | 48 | 1010.7 |
| 20260504110508 | 64 | 82 | 0.0 | 0.0 | 0.00 | 0.00 | 0.00 | 40 | 1010.7 |
| 20260504100506 | 63 | 36 | 0.9 | 0.9 | 0.00 | 0.00 | 0.00 | 45 | 1010.5 |
| 20260504082002 | 64 | 49 | 0.0 | 1.7 | 0.00 | 0.00 | 0.00 | 40 | 1010.4 |
| 20260504081513 | 65 | 34 | 0.0 | 1.7 | 0.00 | 0.00 | 0.00 | 43 | 1010.5 |
| 20260504081004 | 64 | 40 | 0.9 | 1.7 | 0.00 | 0.00 | 0.00 | 43 | 1010.6 |
| 20260504080509 | 64 | 40 | 0.9 | 1.7 | 0.00 | 0.00 | 0.00 | 44 | 1010.6 |